When you browse on this site, cookies collect data to enhance your experience and personalize the content and advertising you see.
Visit our Privacy Policy to learn more. By continuing to use the site, you agree to this use of cookies and data.
  • In Slovakia
  • List of Countries
  • For 7 days
  • Water Temperature
  • Weather Map
  • Weather Widgets
  • user-avatar
    Login

    Hourly Weather Fier

    Today, 19 September, Thursday

    Time Temperature Precipitation Wind Pressure Humidity
    00:00 +23°C° 0 mm 1 mps 760 mmHg 81%
    01:00 +23°C° 0 mm 1 mps 761 mmHg 80%
    02:00 +23°C° 0 mm 1 mps 760 mmHg 80%
    03:00 +23°C° 0 mm 1 mps 760 mmHg 80%
    04:00 +23°C° 0 mm 1 mps 760 mmHg 80%
    05:00 +23°C° 0 mm 1 mps 760 mmHg 75%
    06:00 +24°C° 0 mm 1 mps 760 mmHg 69%
    07:00 +25°C° 0 mm 2 mps 760 mmHg 64%
    08:00 +27°C° 0 mm 2 mps 760 mmHg 58%
    09:00 +29°C° 0 mm 2 mps 760 mmHg 53%
    10:00 +30°C° 0 mm 2 mps 760 mmHg 47%
    11:00 +30°C° 0.1 mm 3 mps 760 mmHg 48%
    12:00 +30°C° 0.1 mm 4 mps 760 mmHg 50%
    13:00 +30°C° 0.1 mm 4 mps 759 mmHg 51%
    14:00 +30°C° 0.5 mm 4 mps 759 mmHg 53%
    15:00 +29°C° 0.5 mm 3 mps 759 mmHg 55%
    16:00 +28°C° 0.5 mm 3 mps 759 mmHg 57%
    17:00 +27°C° 0.8 mm 2 mps 759 mmHg 63%
    18:00 +25°C° 0.8 mm 2 mps 760 mmHg 70%
    19:00 +24°C° 0.8 mm 2 mps 760 mmHg 77%
    20:00 +24°C° 1.1 mm 2 mps 760 mmHg 78%
    21:00 +24°C° 1.1 mm 2 mps 761 mmHg 79%
    22:00 +23°C° 1.1 mm 1 mps 761 mmHg 81%
    23:00 +23°C° 0.7 mm 2 mps 761 mmHg 81%

    Tomorrow, 20 September, Friday

    Time Temperature Precipitation Wind Pressure Humidity
    00:00 +23°C° 0.7 mm 2 mps 761 mmHg 82%
    01:00 +23°C° 0.7 mm 2 mps 761 mmHg 83%
    02:00 +23°C° 0.4 mm 2 mps 761 mmHg 82%
    03:00 +23°C° 0.4 mm 2 mps 761 mmHg 81%
    04:00 +23°C° 0.4 mm 1 mps 761 mmHg 80%
    05:00 +23°C° 0.2 mm 2 mps 761 mmHg 79%
    06:00 +23°C° 0.2 mm 2 mps 761 mmHg 78%
    07:00 +22°C° 0.2 mm 3 mps 762 mmHg 77%
    08:00 +24°C° 0 mm 3 mps 762 mmHg 71%
    09:00 +25°C° 0 mm 3 mps 762 mmHg 64%
    10:00 +27°C° 0 mm 4 mps 762 mmHg 58%
    11:00 +27°C° 0 mm 4 mps 762 mmHg 54%
    12:00 +28°C° 0 mm 5 mps 762 mmHg 51%
    13:00 +28°C° 0 mm 5 mps 762 mmHg 48%
    14:00 +28°C° 0 mm 6 mps 762 mmHg 46%
    15:00 +27°C° 0 mm 6 mps 762 mmHg 45%
    16:00 +27°C° 0 mm 6 mps 762 mmHg 43%
    17:00 +26°C° 0 mm 6 mps 762 mmHg 44%
    18:00 +25°C° 0 mm 5 mps 762 mmHg 46%
    19:00 +22°C° 0 mm 5 mps 763 mmHg 47%
    20:00 +22°C° 0 mm 4 mps 763 mmHg 47%
    21:00 +21°C° 0 mm 4 mps 764 mmHg 48%
    22:00 +21°C° 0 mm 3 mps 764 mmHg 48%
    23:00 +20°C° 0 mm 3 mps 764 mmHg 48%

    Day after tomorrow, 21 September, Saturday

    Time Temperature Precipitation Wind Pressure Humidity
    00:00 +20°C° 0 mm 3 mps 764 mmHg 48%
    01:00 +20°C° 0 mm 2 mps 764 mmHg 47%
    02:00 +19°C° 0 mm 2 mps 764 mmHg 46%
    03:00 +19°C° 0 mm 3 mps 764 mmHg 45%
    04:00 +19°C° 0 mm 3 mps 764 mmHg 44%
    05:00 +19°C° 0 mm 3 mps 765 mmHg 43%
    06:00 +20°C° 0 mm 3 mps 765 mmHg 42%
    07:00 +20°C° 0 mm 3 mps 765 mmHg 40%
    08:00 +23°C° 0 mm 2 mps 765 mmHg 38%
    09:00 +25°C° 0 mm 2 mps 765 mmHg 35%
    10:00 +27°C° 0 mm 1 mps 766 mmHg 33%
    11:00 +28°C° 0 mm 2 mps 765 mmHg 35%
    12:00 +28°C° 0 mm 3 mps 765 mmHg 38%
    13:00 +29°C° 0 mm 3 mps 765 mmHg 40%
    14:00 +28°C° 0 mm 3 mps 765 mmHg 44%
    15:00 +27°C° 0 mm 3 mps 764 mmHg 47%
    16:00 +27°C° 0 mm 3 mps 764 mmHg 51%
    17:00 +25°C° 0 mm 3 mps 764 mmHg 54%
    18:00 +24°C° 0 mm 2 mps 764 mmHg 58%
    19:00 +23°C° 0 mm 2 mps 765 mmHg 61%
    20:00 +21°C° 0 mm 2 mps 765 mmHg 61%
    21:00 +21°C° 0 mm 2 mps 765 mmHg 62%
    22:00 +22°C° 0 mm 1 mps 765 mmHg 62%
    23:00 +21°C° 0 mm 1 mps 765 mmHg 63%

    22 September, Sunday

    Time Temperature Precipitation Wind Pressure Humidity
    00:00 +20°C° 0 mm 2 mps 764 mmHg 64%
    01:00 +20°C° 0 mm 2 mps 764 mmHg 65%
    02:00 +20°C° 0 mm 2 mps 764 mmHg 65%
    03:00 +19°C° 0 mm 2 mps 764 mmHg 65%
    04:00 +20°C° 0 mm 1 mps 764 mmHg 65%
    05:00 +21°C° 0 mm 1 mps 764 mmHg 62%
    06:00 +21°C° 0 mm 1 mps 764 mmHg 59%
    07:00 +22°C° 0 mm 1 mps 764 mmHg 56%
    08:00 +24°C° 0 mm 1 mps 764 mmHg 52%
    09:00 +26°C° 0 mm 1 mps 764 mmHg 47%
    10:00 +27°C° 0 mm 1 mps 764 mmHg 42%
    11:00 +28°C° 0 mm 2 mps 764 mmHg 41%
    12:00 +29°C° 0 mm 3 mps 763 mmHg 39%
    13:00 +29°C° 0 mm 4 mps 763 mmHg 37%
    14:00 +28°C° 0 mm 3 mps 762 mmHg 41%
    15:00 +28°C° 0 mm 3 mps 762 mmHg 44%
    16:00 +27°C° 0 mm 3 mps 762 mmHg 47%
    17:00 +26°C° 0 mm 2 mps 762 mmHg 51%
    18:00 +24°C° 0 mm 2 mps 762 mmHg 54%
    19:00 +23°C° 0 mm 1 mps 762 mmHg 58%
    20:00 +23°C° 0 mm 1 mps 763 mmHg 58%
    21:00 +23°C° 0 mm 1 mps 763 mmHg 59%
    22:00 +23°C° 0 mm 1 mps 763 mmHg 59%
    23:00 +23°C° 0 mm 1 mps 763 mmHg 61%

    23 September, Monday

    Time Temperature Precipitation Wind Pressure Humidity
    00:00 +22°C° 0 mm 1 mps 763 mmHg 63%
    01:00 +21°C° 0 mm 2 mps 762 mmHg 65%
    02:00 +21°C° 0 mm 2 mps 762 mmHg 64%
    03:00 +21°C° 0 mm 2 mps 762 mmHg 62%
    04:00 +21°C° 0 mm 2 mps 762 mmHg 60%
    05:00 +21°C° 0 mm 2 mps 762 mmHg 58%
    06:00 +23°C° 0 mm 2 mps 762 mmHg 56%
    07:00 +24°C° 0 mm 2 mps 762 mmHg 55%
    08:00 +24°C° 0 mm 2 mps 762 mmHg 52%
    09:00 +25°C° 0 mm 2 mps 762 mmHg 49%
    10:00 +26°C° 0 mm 2 mps 762 mmHg 47%
    11:00 +27°C° 0 mm 3 mps 762 mmHg 45%
    12:00 +28°C° 0 mm 4 mps 761 mmHg 44%
    13:00 +29°C° 0 mm 5 mps 761 mmHg 42%
    14:00 +29°C° 0 mm 4 mps 761 mmHg 44%
    15:00 +29°C° 0 mm 4 mps 760 mmHg 46%
    16:00 +29°C° 0 mm 4 mps 760 mmHg 48%
    17:00 +28°C° 0 mm 4 mps 760 mmHg 53%
    18:00 +26°C° 0 mm 3 mps 760 mmHg 57%
    19:00 +25°C° 0 mm 3 mps 760 mmHg 62%
    20:00 +25°C° 0.1 mm 3 mps 760 mmHg 63%
    21:00 +24°C° 0.1 mm 2 mps 760 mmHg 64%
    22:00 +24°C° 0.1 mm 2 mps 760 mmHg 64%
    23:00 +23°C° 0.4 mm 2 mps 760 mmHg 67%

    24 September, Tuesday

    Time Temperature Precipitation Wind Pressure Humidity
    00:00 +23°C° 0.4 mm 2 mps 759 mmHg 69%
    01:00 +23°C° 0.4 mm 2 mps 759 mmHg 71%
    02:00 +23°C° 0.7 mm 2 mps 759 mmHg 71%
    03:00 +23°C° 0.7 mm 1 mps 759 mmHg 71%
    04:00 +23°C° 0.7 mm 1 mps 759 mmHg 72%
    05:00 +23°C° 0.8 mm 1 mps 759 mmHg 70%
    06:00 +24°C° 0.8 mm 1 mps 759 mmHg 69%
    07:00 +24°C° 0.8 mm 2 mps 759 mmHg 67%
    08:00 +25°C° 0.1 mm 2 mps 759 mmHg 62%
    09:00 +27°C° 0.1 mm 1 mps 759 mmHg 58%
    10:00 +29°C° 0.1 mm 1 mps 759 mmHg 53%
    11:00 +29°C° 0 mm 2 mps 759 mmHg 54%
    12:00 +29°C° 0 mm 3 mps 758 mmHg 56%
    13:00 +29°C° 0 mm 3 mps 758 mmHg 58%
    14:00 +29°C° 0.1 mm 3 mps 758 mmHg 59%
    15:00 +28°C° 0.1 mm 2 mps 758 mmHg 60%
    16:00 +28°C° 0.1 mm 1 mps 758 mmHg 61%
    17:00 +27°C° 0 mm 2 mps 758 mmHg 68%
    18:00 +26°C° 0 mm 2 mps 758 mmHg 75%
    19:00 +24°C° 0 mm 3 mps 759 mmHg 81%
    20:00 +24°C° 0 mm 2 mps 759 mmHg 83%
    21:00 +24°C° 0 mm 2 mps 759 mmHg 84%
    22:00 +23°C° 0 mm 2 mps 759 mmHg 86%
    23:00 +23°C° 0 mm 2 mps 759 mmHg 87%
    Show more